TimeCST,TemperatureF,Dew PointF,Humidity,Sea Level PressureIn,VisibilityMPH,Wind Direction,Wind SpeedMPH,Gust SpeedMPH,PrecipitationIn,Events,Conditions,WindDirDegrees,DateUTC
12:53 AM,55.0,45.0,69,30.32,7.0,East,3.5,-,N/A,,Mostly Cloudy,80,2013-01-28 06:53:00
1:53 AM,53.1,46.0,77,30.33,7.0,North,3.5,-,N/A,,Mostly Cloudy,10,2013-01-28 07:53:00
2:53 AM,53.1,46.0,77,30.31,7.0,ENE,3.5,-,N/A,,Overcast,70,2013-01-28 08:53:00
3:35 AM,53.6,46.4,77,30.32,7.0,East,3.5,-,N/A,,Overcast,80,2013-01-28 09:35:00
3:53 AM,54.0,46.0,75,30.31,7.0,East,3.5,-,N/A,,Overcast,80,2013-01-28 09:53:00
4:16 AM,53.6,46.4,77,30.31,6.0,Calm,Calm,-,N/A,,Haze,0,2013-01-28 10:16:00
4:53 AM,55.0,48.0,77,30.30,7.0,ESE,8.1,-,N/A,,Overcast,120,2013-01-28 10:53:00
5:53 AM,54.0,48.9,83,30.30,6.0,East,6.9,-,N/A,,Haze,100,2013-01-28 11:53:00
6:43 AM,55.4,51.8,88,30.34,5.0,SE,4.6,-,N/A,,Overcast,130,2013-01-28 12:43:00
6:53 AM,55.0,51.1,86,30.34,5.0,ESE,3.5,-,N/A,,Overcast,110,2013-01-28 12:53:00
7:23 AM,55.4,51.8,88,30.35,2.0,ESE,3.5,-,N/A,,Overcast,120,2013-01-28 13:23:00
7:27 AM,55.4,51.8,88,30.35,1.5,ESE,3.5,-,N/A,,Overcast,120,2013-01-28 13:27:00
7:31 AM,55.4,51.8,88,30.35,1.2,ESE,3.5,-,N/A,,Overcast,120,2013-01-28 13:31:00
7:46 AM,55.4,53.6,94,30.34,1.0,ESE,6.9,-,N/A,,Overcast,120,2013-01-28 13:46:00
7:53 AM,55.0,53.1,93,30.34,1.0,ESE,5.8,-,N/A,,Overcast,120,2013-01-28 13:53:00
8:04 AM,55.4,53.6,94,30.35,0.8,ESE,3.5,-,N/A,,Overcast,110,2013-01-28 14:04:00
8:13 AM,55.4,53.6,94,30.36,1.0,ESE,3.5,-,N/A,,Overcast,120,2013-01-28 14:13:00
8:26 AM,55.4,53.6,94,30.35,1.5,ESE,4.6,-,N/A,,Overcast,110,2013-01-28 14:26:00
8:42 AM,55.4,53.6,94,30.35,1.8,ESE,4.6,-,N/A,,Overcast,120,2013-01-28 14:42:00
8:53 AM,57.0,53.1,87,30.36,2.0,SE,4.6,-,N/A,,Overcast,140,2013-01-28 14:53:00
9:37 AM,57.2,53.6,88,30.37,3.0,ESE,5.8,-,N/A,,Haze,120,2013-01-28 15:37:00
9:53 AM,59.0,53.1,81,30.35,3.0,ESE,5.8,-,N/A,,Haze,120,2013-01-28 15:53:00
10:12 AM,60.8,53.6,77,30.36,4.0,SE,6.9,-,N/A,,Haze,140,2013-01-28 16:12:00
10:53 AM,62.1,54.0,75,30.34,4.0,SE,5.8,-,N/A,,Haze,130,2013-01-28 16:53:00
11:05 AM,64.4,53.6,68,30.33,5.0,ESE,6.9,-,N/A,,Haze,110,2013-01-28 17:05:00
11:29 AM,64.4,55.4,73,30.32,5.0,South,6.9,-,N/A,,Haze,170,2013-01-28 17:29:00
11:53 AM,66.0,55.0,68,30.30,6.0,South,5.8,-,N/A,,Haze,170,2013-01-28 17:53:00
12:53 PM,70.0,55.0,59,30.27,7.0,SSW,5.8,-,N/A,,Mostly Cloudy,210,2013-01-28 18:53:00
1:53 PM,72.0,55.0,55,30.25,8.0,SSW,4.6,-,N/A,,Partly Cloudy,210,2013-01-28 19:53:00
2:53 PM,73.0,54.0,51,30.24,8.0,SSW,10.4,-,N/A,,Clear,210,2013-01-28 20:53:00
3:53 PM,72.0,54.0,53,30.23,8.0,SW,6.9,-,N/A,,Partly Cloudy,220,2013-01-28 21:53:00
4:53 PM,70.0,55.0,59,30.24,8.0,SSW,3.5,-,N/A,,Mostly Cloudy,210,2013-01-28 22:53:00
5:53 PM,68.0,55.9,65,30.24,9.0,Calm,Calm,-,N/A,,Mostly Cloudy,0,2013-01-28 23:53:00
6:53 PM,64.9,55.9,73,30.24,8.0,Calm,Calm,-,N/A,,Overcast,0,2013-01-29 00:53:00
7:53 PM,60.1,55.0,83,30.24,7.0,Calm,Calm,-,N/A,,Partly Cloudy,0,2013-01-29 01:53:00
8:53 PM,60.1,55.0,83,30.24,6.0,Calm,Calm,-,N/A,,Haze,0,2013-01-29 02:53:00
9:53 PM,57.0,54.0,89,30.23,5.0,Calm,Calm,-,N/A,,Partly Cloudy,0,2013-01-29 03:53:00
10:53 PM,55.9,53.1,90,30.23,5.0,Calm,Calm,-,N/A,,Scattered Clouds,0,2013-01-29 04:53:00
11:53 PM,55.9,53.1,90,30.21,5.0,Calm,Calm,-,N/A,,Clear,0,2013-01-29 05:53:00